Location: Columbia, SC
(34.0000°N, 81.0300°W)
Time: 20:08:33
(UTC-04:00)

Tiangong 1 - Visible Passes

Search period start: 28 August 2016 00:00
Search period end: 07 September 2016 00:00
Orbit: 363 x 383 km, 42.8° (Epoch: 28 August)

Date Brightness Start Highest point End Pass type
(mag) Time Alt. Az. Time Alt. Az. Time Alt. Az.
28 Aug 3.1 21:15:33 10° NW 21:17:53 19° N 21:18:49 17° NE visible
29 Aug 3.0 21:48:24 10° NW 21:50:13 26° NNW 21:50:13 26° NNW visible
30 Aug 2.8 20:45:10 10° NW 20:47:44 23° NNE 20:49:39 14° ENE visible
30 Aug 4.5 22:21:21 10° WNW 22:21:36 12° WNW 22:21:36 12° WNW visible
31 Aug 1.3 21:17:57 10° NW 21:21:01 54° NNE 21:21:03 53° NNE visible
01 Sep 2.3 20:14:38 10° NW 20:17:27 30° NNE 20:20:14 10° E visible
01 Sep 3.4 21:51:02 10° WNW 21:52:28 22° W 21:52:28 22° W visible
02 Sep 0.9 20:47:26 10° WNW 20:50:33 89° NNE 20:51:58 29° ESE visible
03 Sep 2.9 21:20:48 10° W 21:23:19 23° SW 21:23:30 23° SSW visible
04 Sep 1.6 20:16:52 10° WNW 20:19:55 52° SSW 20:22:55 10° SE visible
05 Sep 3.7 20:50:51 10° WSW 20:52:31 14° SW 20:54:09 10° S visible
